Weather History for K5H4 - September, 2012

Change the Weather History Date:

Friday, September 7, 2012

  Actual Average (KRUG) Record (KRUG)
Temperature  
Mean Temperature 52 °F -  
Max Temperature 66 °F 75 °F - (-1)
Min Temperature 39 °F 48 °F - (-1)
Degree Days  
Heating Degree Days 12    
Growing Degree Days 2 (Base 50)    
Moisture  
Dew Point 42 °F    
Average Humidity 73    
Maximum Humidity 100    
Minimum Humidity 40    
Precipitation  
Precipitation 0.00 in - - ()
Sea Level Pressure  
Sea Level Pressure 30.14 in    
Wind  
Wind Speed 9 mph (WNW)    
Max Wind Speed 18 mph    
Max Gust Speed 23 mph    
Visibility 10 miles    
Events      
Averages and records for this station are not official NWS values.
T = Trace of Precipitation, MM = Missing Value Source: NWS Daily Summary

Daily Weather History Graph

Daily Weather History Graph

Search for Another Location

Airport or City:

Trip Planner

Search our weather history database for the weather conditions in past years. The results will help you decide how hot, cold, wet, or windy it might be!

Date:

Astronomy

Sep. 07, 2012 Rise Set
Actual Time 7:06 AM CDT 8:07 PM CDT
Civil Twilight 6:35 AM CDT 8:38 PM CDT
Nautical Twilight 5:57 AM CDT 9:16 PM CDT
Astronomical Twilight 5:17 AM CDT 9:56 PM CDT
Moon 11:32 PM CDT (9/7) 2:32 PM CDT (9/7)
Length of Visible Light 14h 03m
Length of Day
13h 00m
Waning Gibbous, 58% of the Moon is Illuminated
Sep 7
Waning Gibbous
Sep 8
Last Quarter
Sep 15
New
Sep 22
First Quarter
Sep 29
Full

Hourly Weather History & Observations

Time (CDT) Temp. Windchill Dew Point Humidity Pressure Visibility Wind Dir Wind Speed Gust Speed Precip Events Conditions
12:15 AM 50.0 °F - 44.6 °F 82% 30.08 in 10.0 mi WNW 5.8 mph - N/A   Mostly Cloudy
12:35 AM 48.2 °F - 42.8 °F 82% 30.08 in 10.0 mi NW 8.1 mph - N/A   Partly Cloudy
12:55 AM 46.4 °F 41.9 °F 41.0 °F 81% 30.09 in 10.0 mi WNW 9.2 mph - N/A   Partly Cloudy
1:35 AM 44.6 °F 40.7 °F 41.0 °F 87% 30.09 in 10.0 mi WNW 6.9 mph - N/A   Clear
1:55 AM 42.8 °F 38.6 °F 41.0 °F 93% 30.09 in 10.0 mi NW 6.9 mph - N/A   Clear
2:15 AM 42.8 °F 38.0 °F 41.0 °F 93% 30.09 in 10.0 mi WNW 8.1 mph - N/A   Clear
2:35 AM 42.8 °F 38.0 °F 41.0 °F 93% 30.10 in 10.0 mi WNW 8.1 mph - N/A   Clear
2:55 AM 44.6 °F 41.4 °F 42.8 °F 93% 30.10 in 10.0 mi West 5.8 mph - N/A   Clear
3:15 AM 44.6 °F 41.4 °F 41.0 °F 87% 30.10 in 10.0 mi WNW 5.8 mph - N/A   Clear
3:35 AM 41.0 °F 35.8 °F 39.2 °F 93% 30.10 in 10.0 mi NW 8.1 mph - N/A   Clear
3:55 AM 42.8 °F 38.6 °F 42.8 °F 100% 30.10 in 10.0 mi WNW 6.9 mph - N/A   Clear
4:15 AM 41.0 °F 37.1 °F 41.0 °F 100% 30.11 in 10.0 mi WNW 5.8 mph - N/A   Clear
4:35 AM 41.0 °F 35.8 °F 41.0 °F 100% 30.11 in 10.0 mi WNW 8.1 mph - N/A   Clear
4:55 AM 41.0 °F 35.8 °F 41.0 °F 100% 30.12 in 10.0 mi WNW 8.1 mph - N/A   Clear
5:15 AM 41.0 °F 35.8 °F 41.0 °F 100% 30.13 in 10.0 mi WNW 8.1 mph - N/A   Clear
5:35 AM 41.0 °F 35.8 °F 41.0 °F 100% 30.13 in 10.0 mi WNW 8.1 mph - N/A   Clear
5:55 AM 41.0 °F 35.2 °F 41.0 °F 100% 30.13 in 10.0 mi WNW 9.2 mph - N/A   Clear
6:15 AM 39.2 °F 33.0 °F 39.2 °F 100% 30.13 in 10.0 mi WNW 9.2 mph - N/A   Clear
6:35 AM 41.0 °F 35.2 °F 41.0 °F 100% 30.14 in 10.0 mi WNW 9.2 mph - N/A   Clear
6:55 AM 41.0 °F 35.8 °F 41.0 °F 100% 30.15 in 10.0 mi WNW 8.1 mph - N/A   Partly Cloudy
7:15 AM 41.0 °F 36.4 °F 41.0 °F 100% 30.15 in 10.0 mi WNW 6.9 mph - N/A   Scattered Clouds
7:35 AM 41.0 °F 35.8 °F 41.0 °F 100% 30.16 in 10.0 mi WNW 8.1 mph - N/A   Mostly Cloudy
7:55 AM 41.0 °F 35.2 °F 41.0 °F 100% 30.17 in 10.0 mi West 9.2 mph - N/A   Mostly Cloudy
8:15 AM 42.8 °F 38.0 °F 42.8 °F 100% 30.17 in 10.0 mi WNW 8.1 mph - N/A   Mostly Cloudy
8:35 AM 44.6 °F 40.7 °F 44.6 °F 100% 30.17 in 10.0 mi WNW 6.9 mph - N/A   Mostly Cloudy
8:55 AM 44.6 °F 40.7 °F 44.6 °F 100% 30.18 in 10.0 mi WNW 6.9 mph - N/A   Mostly Cloudy
9:15 AM 46.4 °F 41.9 °F 46.4 °F 100% 30.18 in 10.0 mi WNW 9.2 mph - N/A   Overcast
9:35 AM 48.2 °F - 46.4 °F 93% 30.18 in 10.0 mi West 8.1 mph - N/A   Overcast
9:55 AM 50.0 °F - 46.4 °F 87% 30.18 in 10.0 mi WNW 9.2 mph - N/A   Mostly Cloudy
10:15 AM 53.6 °F - 46.4 °F 77% 30.18 in 10.0 mi WNW 9.2 mph - N/A   Mostly Cloudy
10:35 AM 53.6 °F - 46.4 °F 77% 30.18 in 10.0 mi WNW 9.2 mph - N/A   Mostly Cloudy
10:55 AM 57.2 °F - 46.4 °F 67% 30.19 in 10.0 mi WNW 8.1 mph - N/A   Mostly Cloudy
11:15 AM 57.2 °F - 46.4 °F 67% 30.18 in 10.0 mi NW 11.5 mph 17.3 mph N/A   Mostly Cloudy
11:35 AM 59.0 °F - 46.4 °F 63% 30.18 in 10.0 mi NNW 12.7 mph 17.3 mph N/A   Mostly Cloudy
11:55 AM 60.8 °F - 46.4 °F 59% 30.18 in 10.0 mi NW 15.0 mph 19.6 mph N/A   Overcast
12:15 PM 59.0 °F - 44.6 °F 59% 30.18 in 10.0 mi NW 15.0 mph 19.6 mph N/A   Mostly Cloudy
12:35 PM 59.0 °F - 44.6 °F 59% 30.18 in 10.0 mi NNW 15.0 mph 23.0 mph N/A   Overcast
12:55 PM 59.0 °F - 42.8 °F 55% 30.18 in 10.0 mi NNW 15.0 mph 19.6 mph N/A   Overcast
1:15 PM 59.0 °F - 41.0 °F 51% 30.18 in 10.0 mi NNW 15.0 mph 19.6 mph N/A   Overcast
1:35 PM 60.8 °F - 41.0 °F 48% 30.18 in 10.0 mi NW 15.0 mph 21.9 mph N/A   Overcast
1:55 PM 60.8 °F - 41.0 °F 48% 30.18 in 10.0 mi NNW 13.8 mph 17.3 mph N/A   Overcast
2:15 PM 60.8 °F - 41.0 °F 48% 30.18 in 10.0 mi NW 12.7 mph - N/A   Overcast
2:35 PM 62.6 °F - 41.0 °F 45% 30.17 in 10.0 mi NW 16.1 mph - N/A   Overcast
2:55 PM 64.4 °F - 41.0 °F 42% 30.17 in 10.0 mi WNW 16.1 mph 20.7 mph N/A   Overcast
3:15 PM 62.6 °F - 41.0 °F 45% 30.16 in 10.0 mi NW 16.1 mph 20.7 mph N/A   Mostly Cloudy
3:35 PM 66.2 °F - 41.0 °F 40% 30.16 in 10.0 mi NNW 11.5 mph 18.4 mph N/A   Mostly Cloudy
3:55 PM 64.4 °F - 41.0 °F 42% 30.15 in 10.0 mi NNW 9.2 mph - N/A   Scattered Clouds
4:15 PM 64.4 °F - 41.0 °F 42% 30.15 in 10.0 mi NNW 12.7 mph 19.6 mph N/A   Clear
4:35 PM 64.4 °F - 41.0 °F 42% 30.15 in 10.0 mi NNW 10.4 mph 23.0 mph N/A   Clear
4:55 PM 66.2 °F - 41.0 °F 40% 30.14 in 10.0 mi NW 18.4 mph - N/A   Clear
5:15 PM 66.2 °F - 41.0 °F 40% 30.14 in 10.0 mi NNW 12.7 mph 21.9 mph N/A   Clear
5:35 PM 66.2 °F - 41.0 °F 40% 30.13 in 10.0 mi NNW 13.8 mph - N/A   Clear
5:55 PM 66.2 °F - 41.0 °F 40% 30.13 in 10.0 mi NNW 12.7 mph 19.6 mph N/A   Clear
6:15 PM 66.2 °F - 41.0 °F 40% 30.12 in 10.0 mi NW 9.2 mph - N/A   Clear
6:35 PM 66.2 °F - 41.0 °F 40% 30.12 in 10.0 mi NNW 10.4 mph - N/A   Clear
6:55 PM 64.4 °F - 41.0 °F 42% 30.12 in 10.0 mi NNW 9.2 mph - N/A   Clear
7:15 PM 64.4 °F - 41.0 °F 42% 30.12 in 10.0 mi NNW 8.1 mph - N/A   Clear
7:35 PM 62.6 °F - 42.8 °F 48% 30.11 in 10.0 mi NW 3.5 mph - N/A   Clear
7:55 PM 60.8 °F - 41.0 °F 48% 30.11 in 10.0 mi WNW 3.5 mph - N/A   Clear
8:15 PM 55.4 °F - 44.6 °F 67% 30.10 in 10.0 mi WSW 3.5 mph - N/A   Clear
8:35 PM 53.6 °F - 44.6 °F 72% 30.11 in 10.0 mi SW 4.6 mph - N/A   Clear
8:55 PM 50.0 °F - 42.8 °F 76% 30.11 in 10.0 mi SSW 4.6 mph - N/A   Clear
9:15 PM 50.0 °F - 42.8 °F 76% 30.10 in 10.0 mi SSW 6.9 mph - N/A   Clear
9:35 PM 50.0 °F - 42.8 °F 76% 30.11 in 10.0 mi SSW 6.9 mph - N/A   Clear
9:55 PM 50.0 °F - 41.0 °F 71% 30.10 in 10.0 mi SSW 6.9 mph - N/A   Clear
10:55 PM 46.4 °F 42.9 °F 41.0 °F 81% 30.09 in 10.0 mi SW 6.9 mph - N/A   Clear
11:35 PM 46.4 °F 42.4 °F 41.0 °F 81% 30.08 in 10.0 mi SW 8.1 mph - N/A   Clear
11:55 PM 44.6 °F 39.7 °F 41.0 °F 87% 30.08 in 10.0 mi SW 9.2 mph - N/A   Clear